Location: Unspecified
(0.0000°N, 0.0000°E)
Time: 20:28:27
(UTC+00:00)

STARLINK-4252 - Pass Details

Date: 31 October 2025
Orbit: 549 x 550 km, 97.6° (Epoch: 29 March)

Event Time Altitude Azimuth Distance (km) Brightness Sun altitude
Rises 18:31:35 0° 332° (NNW) 2,705 7.3 -11.6°
Drops below altitude 10° 18:35:21 - 294° (WNW) 1,856 7.1 -12.5°
Maximum altitude 18:36:13 10° 282° (WNW) 1,819 7.3 -12.7°
Sets 18:40:53 0° 231° (SW) 2,716 8.4 -13.9°
